Location: Burleson Alternative School
(32.5290°N, 97.3406°W)
Time: 17:39:33
(UTC+00:00)

Courier 1B Rocket - Visible Passes

Search period start: 19 January 2026 00:00
Search period end: 29 January 2026 00:00
Orbit: 920 x 1201 km, 28.2° (Epoch: 19 January)

Date Brightness Start Highest point End Pass type
(mag) Time Alt. Az. Time Alt. Az. Time Alt. Az.
19 Jan 7.1 11:51:12 10° SSW 11:56:54 24° SSE 12:02:20 10° ESE visible
20 Jan 7.3 10:51:26 11° S 10:55:42 18° SSE 11:00:18 10° ESE visible
20 Jan 6.4 12:42:00 10° SW 12:48:47 41° SSE 12:55:08 10° E visible
21 Jan 7.6 09:54:43 12° SSE 09:54:43 12° SSE 09:57:19 10° SE visible
21 Jan 6.6 11:41:06 10° SW 11:47:32 33° SSE 11:53:44 10° E visible
22 Jan 6.8 10:44:14 23° S 10:46:18 26° SSE 10:52:06 10° ESE visible
22 Jan 6.0 12:32:20 10° WSW 12:39:30 50° SSE 12:46:12 10° E visible
23 Jan 7.4 09:47:14 17° SE 09:47:14 17° SE 09:50:03 10° ESE visible
23 Jan 6.2 11:33:37 21° SW 11:38:11 42° SSE 11:44:54 10° E visible
24 Jan 6.4 10:36:29 34° SSE 10:36:53 34° SSE 10:43:25 10° E visible
24 Jan 5.8 12:22:52 10° WSW 12:30:14 58° S 12:37:09 10° E visible
25 Jan 7.4 09:39:17 19° ESE 09:39:17 19° ESE 09:41:43 10° E visible
25 Jan 5.8 11:25:40 33° SW 11:28:52 51° SSE 11:35:54 10° E visible
26 Jan 6.2 10:28:22 42° SE 10:28:22 42° SE 10:34:31 10° E visible
26 Jan 5.6 12:14:44 16° WSW 12:20:58 63° S 12:28:05 10° E visible
27 Jan 7.5 09:31:01 18° ESE 09:31:01 18° ESE 09:32:58 10° E visible
27 Jan 5.6 11:17:22 44° SW 11:19:33 59° S 11:26:49 10° E visible
28 Jan 6.2 10:19:58 44° SE 10:19:58 44° SE 10:25:28 10° E visible
28 Jan 5.6 12:06:19 21° WSW 12:11:43 64° S 12:18:56 10° ESE visible
